Location: Sceptre
(50.8619°N, 109.2670°W)
Time: 22:49:45
(UTC+00:00)

Envisat - Pass Details

Date: 30 January 2022
Orbit: 764 x 765 km, 98.2° (Epoch: 22 May)

Event Time Altitude Azimuth Distance (km) Brightness Sun altitude
Rises 11:47:50 0° 18° (NNE) 3,244 6.6 -29.6°
Reaches altitude 10° 11:50:14 10° 25° (NNE) 2,313 5.8 -29.3°
Maximum altitude 11:55:09 46° 98° (E) 1,019 3.9 -28.5°
Drops below altitude 10° 12:00:01 10° 172° (S) 2,297 5.5 -27.7°
Sets 12:02:24 0° 178° (S) 3,219 6.2 -27.4°
